Terminal Aerodrome Forecast
Issued by NWS Paducah, KY

Home | Current Version | Previous Version | Text Only | Print | Product List | Glossary On
Versions: 1 2 3 4 5 6 7 8 9 10 11 12 13 14 15 16
000
FTUS43 KPAH 270000 AAA
TAFEVV
TAF AMD
KEVV 270054Z 2701/2724 23010KT P6SM SCT040 BKN100
      TEMPO 2701/2703 3SM -TSRA BR BKN025CB
     FM271400 26014G22KT P6SM SCT035 BKN150
     FM272200 29014G24KT P6SM SCT150=

USA.gov is the U.S. government's official web portal to all federal, state and local government web resources and services.